Tracking 18980 objects as of 17-Feb-2018
HD Live streaming from Space Station
objects crossing your sky now

NOAA 16 DEB

Track NOAA 16 DEB now!
10-day predictions


NORAD ID: 41271
Int'l Code: 2000-055FX
Perigee: 749.8 km
Apogee: 850.1 km
Inclination: 98.8 °
Period: 100.7 minutes
Semi major axis: 7170 km
RCS: Unknown
Launch date: September 21, 2000
Source: United States (US)
Launch site: AIR FORCE WESTERN TEST RANGE (AFWTR)

Note: This is SATELLITE DEBRIS
aabbcc
Your satellite tracking list
Your tracking list is empty




NASA's NSSDC Master Catalog

Two Line Element Set (TLE):
1 41271U 00055FX  18047.50518144  .00001305  00000-0  51309-3 0  9993
2 41271  98.7961 136.6388 0069910 255.9906 103.3496 14.29677952113826
Source of the keplerian elements: AFSPC